Gallup, NM

1:33 PM MST on January 16, 2018 (GMT -0700)
Gallup Municipal

Weather History for KGUP - October, 2013

Change the Weather History Date:

Saturday, October 12, 2013

  Actual Average Record
Temperature  
Mean Temperature 46 °F -  
Max Temperature 66 °F 67 °F 80 °F (1989)
Min Temperature 28 °F 29 °F 16 °F (1982)
Degree Days  
Heating Degree Days 19    
Moisture  
Dew Point 30 °F    
Average Humidity 59    
Maximum Humidity 96    
Minimum Humidity 19    
Precipitation  
Precipitation 0.00 in - - ()
Sea Level Pressure  
Sea Level Pressure 30.01 in    
Wind  
Wind Speed 3 mph (NE)    
Max Wind Speed 10 mph    
Max Gust Speed 18 mph    
Visibility 10 miles    
Events      
Averages and records for this station are not official NWS values.
T = Trace of Precipitation, MM = Missing Value Source: NWS Daily Summary

Daily Weather History Graph

Daily Weather History Graph

Search for Another Location

Airport or City:

Trip Planner

Search our weather history database for the weather conditions in past years. The results will help you decide how hot, cold, wet, or windy it might be!

Date:

Astronomy

Oct. 12, 2013 Rise Set
Actual Time 7:19 AM MDT 6:43 PM MDT
Civil Twilight 6:53 AM MDT 7:08 PM MDT
Nautical Twilight 6:24 AM MDT 7:38 PM MDT
Astronomical Twilight 5:54 AM MDT 8:07 PM MDT
Moon 2:43 PM MDT (10/12) 12:39 AM MDT (10/12)
Length of Visible Light 12h 15m
Length of Day
11h 24m
First Quarter, 59% of the Moon is Illuminated
Oct 12
First Quarter
Oct 18
Full
Oct 26
Last Quarter
Nov 3
New
Nov 9
First Quarter

Hourly Weather History & Observations

Time (MDT) Temp. Windchill Dew Point Humidity Pressure Visibility Wind Dir Wind Speed Gust Speed Precip Events Conditions
12:53 AM 34.0 °F 31.0 °F 30.9 °F 89% 30.06 in 10.0 mi ENE 3.5 mph - N/A   Clear
1:53 AM 36.0 °F 32.1 °F 32.0 °F 86% 30.05 in 10.0 mi East 4.6 mph - N/A   Clear
2:53 AM 35.1 °F 32.2 °F 32.0 °F 89% 30.03 in 10.0 mi NE 3.5 mph - N/A   Clear
3:53 AM 32.0 °F - 28.9 °F 88% 30.04 in 10.0 mi Calm Calm - N/A   Clear
4:53 AM 30.9 °F - 28.0 °F 89% 30.04 in 10.0 mi Calm Calm - N/A   Clear
5:53 AM 30.0 °F - 28.0 °F 92% 30.06 in 10.0 mi Calm Calm - N/A   Clear
6:53 AM 28.0 °F - 27.0 °F 96% 30.11 in 10.0 mi Calm Calm - N/A   Clear
7:53 AM 28.0 °F - 27.0 °F 96% 30.16 in 10.0 mi Calm Calm - N/A   Clear
8:53 AM 37.0 °F - 32.0 °F 82% 30.13 in 10.0 mi Calm Calm - N/A   Clear
9:53 AM 45.0 °F 40.1 °F 33.1 °F 63% 30.08 in 10.0 mi ENE 9.2 mph - N/A   Clear
10:53 AM 52.0 °F - 32.0 °F 47% 30.05 in 10.0 mi NNE 3.5 mph - N/A   Clear
11:53 AM 55.9 °F - 32.0 °F 40% 30.03 in 10.0 mi Calm Calm - N/A   Clear
12:53 PM 60.1 °F - 30.9 °F 33% 29.99 in 10.0 mi WNW 5.8 mph - N/A   Clear
1:53 PM 61.0 °F - 30.9 °F 32% 29.93 in 10.0 mi West 8.1 mph - N/A   Clear
2:53 PM 64.9 °F - 27.0 °F 24% 29.90 in 10.0 mi WSW 10.4 mph 18.4 mph N/A   Clear
3:53 PM 64.9 °F - 24.1 °F 21% 29.90 in 10.0 mi Variable 4.6 mph - N/A   Clear
4:53 PM 64.9 °F - 21.9 °F 19% 29.90 in 10.0 mi SW 8.1 mph - N/A   Clear
5:53 PM 64.0 °F - 25.0 °F 23% 29.91 in 10.0 mi WNW 6.9 mph - N/A   Clear
6:53 PM 57.0 °F - 28.9 °F 34% 29.98 in 10.0 mi West 3.5 mph - N/A   Clear
7:53 PM 48.9 °F - 32.0 °F 52% 30.06 in 10.0 mi Calm Calm - N/A   Clear
8:53 PM 50.0 °F - 30.9 °F 48% 30.00 in 10.0 mi East 3.5 mph - N/A   Clear
9:53 PM 48.0 °F - 32.0 °F 54% 29.96 in 10.0 mi ESE 3.5 mph - N/A   Clear
10:53 PM 46.0 °F - 30.0 °F 54% 29.95 in 10.0 mi Calm Calm - N/A   Clear
11:53 PM 44.1 °F 42.5 °F 33.1 °F 65% 29.92 in 10.0 mi ENE 3.5 mph - N/A   Clear